This is the latest recevied weather packets stored in our database for station/object MM1PTT-13. If no packets are shown the sender has not sent any weather packets the latest 1 day(s).
| Time | Temp. | Humidity | Pressure | Rain* | Wind** | Luminosity | Snow |
|---|---|---|---|---|---|---|---|
| 1778002246 | 8.89° C | 63% | 987.5 hPa | 0 mm | 4.02 m/s, 55° | 149 W/m² | - |
| 1778001942 | 8.89° C | 65% | 987.5 hPa | 0 mm | 1.79 m/s, 35° | 149 W/m² | - |
| 1778001644 | 8.89° C | 64% | 987.5 hPa | 0 mm | 1.34 m/s, 86° | 118 W/m² | - |
| 1778001343 | 8.89° C | 65% | 987.5 hPa | 0 mm | 1.34 m/s, 27° | 143 W/m² | - |
| 1778001042 | 8.89° C | 64% | 987.5 hPa | 0 mm | 1.79 m/s, 104° | 139 W/m² | - |
| 1778000743 | 8.89° C | 65% | 987.5 hPa | 0 mm | 2.24 m/s, 116° | 109 W/m² | - |
| 1778000443 | 9.44° C | 65% | 987.5 hPa | 0 mm | 2.68 m/s, 54° | 124 W/m² | - |
| 1778000142 | 9.44° C | 63% | 987.5 hPa | 0 mm | 3.13 m/s, 25° | 148 W/m² | - |
| 1777999842 | 9.44° C | 63% | 987.5 hPa | 0 mm | 4.02 m/s, 158° | 208 W/m² | - |
| 1777999543 | 9.44° C | 63% | 987.5 hPa | 0 mm | 3.13 m/s, 13° | 250 W/m² | - |
| 1777999243 | 10° C | 64% | 987.5 hPa | 0 mm | 4.02 m/s, 62° | 282 W/m² | - |
| 1777998712 | 10° C | 64% | 987.5 hPa | 0 mm | 3.58 m/s, 63° | 244 W/m² | - |
| 1777998343 | 10° C | 66% | 987.5 hPa | 0 mm | 2.24 m/s, 57° | 256 W/m² | - |
| 1777998043 | 10° C | 64% | 987.1 hPa | 0 mm | 2.68 m/s, 55° | 286 W/m² | - |
| 1777997743 | 10° C | 64% | 987.1 hPa | 0 mm | 3.13 m/s, 48° | 295 W/m² | - |
| 1777997443 | 10° C | 67% | 987.1 hPa | 0 mm | 1.34 m/s, 55° | 276 W/m² | - |
| 1777997143 | 10° C | 65% | 987.1 hPa | 0 mm | 3.58 m/s, 10° | 288 W/m² | - |
| 1777996843 | 10.56° C | 64% | 987.1 hPa | 0 mm | 2.24 m/s, 28° | 312 W/m² | - |
| 1777996543 | 10.56° C | 64% | 987.1 hPa | 0 mm | 2.24 m/s, 59° | 289 W/m² | - |
| 1777996242 | 10° C | 64% | 987.1 hPa | 0 mm | 4.47 m/s, 95° | 313 W/m² | - |
| 1777995942 | 10.56° C | 64% | 987.1 hPa | 0 mm | 2.24 m/s, 49° | 309 W/m² | - |
| 1777995644 | 10° C | 64% | 987.1 hPa | 0 mm | 3.58 m/s, 48° | 325 W/m² | - |
| 1777995342 | 10° C | 64% | 987.1 hPa | 0 mm | 5.36 m/s, 44° | 310 W/m² | - |
| 1777995043 | 10° C | 65% | 987.1 hPa | 0 mm | 3.13 m/s, 107° | 282 W/m² | - |
| 1777994742 | 10° C | 65% | 987.5 hPa | 0 mm | 5.36 m/s, 6° | 294 W/m² | - |
* Rain latest hour (hover to see other rain measurements)
** Current wind speed in m/s (hover to see current wind gust speed)